Simultaneous Nadir Overpasses (SNOs) Predictions

Prediction of SNOs between AQUA and METOP-B Satellite Orbit:

Table of predicted SNOs for the next 14.0 days since TLE Epoch: 5/22/2020
Index Date (AQUA) Time (AQUA) Lat,Lon (AQUA) SZA (AQUA ) Date (METOP-B) Time (METOP-B) Lat,Lon (METOP-B) SZA (METOP-B ) Distance(km) Time Diff (sec)
1 05/25/2020 05:37:37 -73.79, -90.04 127.28 05/25/2020 05:36:27 -73.76, -90.01 127.29 2.65 70
2 05/25/2020 06:27:05 73.82, 77.52 52.76 05/25/2020 06:27:05 73.84, 77.51 52.78 2.13 0
3 05/25/2020 07:16:32 -73.89,-114.99 127.18 05/25/2020 07:17:46 -73.89,-115.04 127.18 1.92 74
4 05/28/2020 01:11:52 -73.78, -23.60 127.75 05/28/2020 01:10:48 -73.80, -23.51 127.72 3.33 64
5 05/28/2020 02:01:20 73.83, 143.94 52.30 05/28/2020 02:01:27 73.82, 143.87 52.29 2.24 7
6 05/28/2020 02:50:52 -74.14, -49.13 127.38 05/28/2020 02:52:03 -74.12, -48.06 127.43 32.35 71
7 05/30/2020 20:46:07 -73.79, 42.83 128.16 05/30/2020 20:45:10 -73.79, 42.86 128.16 0.95 57
8 05/30/2020 21:35:35 73.84,-149.65 51.89 05/30/2020 21:35:48 73.85,-149.65 51.90 1.32 13
9 05/30/2020 22:25:11 -74.40, 16.70 127.52 05/30/2020 22:26:18 -74.40, 19.05 127.59 70.28 67
10 06/02/2020 16:20:21 -73.80, 109.25 128.52 06/02/2020 16:19:31 -73.77, 109.23 128.54 3.31 50
11 06/02/2020 17:09:49 73.86, -83.24 51.54 06/02/2020 17:10:08 73.88, -83.18 51.56 3.24 19
12 06/05/2020 11:54:36 -73.81, 175.65 128.82 06/05/2020 11:53:52 -73.80, 175.70 128.83 2.32 44
13 06/05/2020 12:44:04 73.88, -16.85 51.25 06/05/2020 12:44:30 73.85, -16.82 51.22 2.77 26




NCC Satellite Simultaneous Nadir Overpasses (SNOs) Prediction Service
